Weather History for FBMN - November, 2011

Change the Weather History Date:

Thursday, November 24, 2011

  Actual Average Record
Temperature  
Mean Temperature 76 °F -  
Max Temperature 84 °F 89 °F 100 °F (1997)
Min Temperature 69 °F 69 °F 68 °F (1999)
Cooling Degree Days 12    
Growing Degree Days 26 (Base 50)    
Moisture  
Dew Point 64 °F    
Average Humidity 66    
Maximum Humidity 83    
Minimum Humidity 48    
Precipitation  
Precipitation 0.00 in - - ()
Sea Level Pressure  
Sea Level Pressure 29.95 in    
Wind  
Wind Speed 5 mph ()    
Max Wind Speed 15 mph    
Max Gust Speed -    
Visibility 6.2 miles    
Events      
Averages and records for this station are not official NWS values.
T = Trace of Precipitation, MM = Missing Value Source: Averaged Metar Reports

Daily Weather History Graph

Daily Weather History Graph

Search for Another Location

Airport or City:

Trip Planner

Search our weather history database for the weather conditions in past years. The results will help you decide how hot, cold, wet, or windy it might be!

Date:

Astronomy

Nov. 24, 2011 Rise Set
Actual Time 5:37 AM CAT 6:48 PM CAT
Civil Twilight 5:13 AM CAT 7:12 PM CAT
Nautical Twilight 4:45 AM CAT 7:40 PM CAT
Astronomical Twilight 4:16 AM CAT 8:09 PM CAT
Moon 4:35 AM CAT (11/24) 6:06 PM CAT (11/24)
Length of Visible Light 13h 58m
Length of Day
13h 10m
Waning Crescent, 1% of the Moon is Illuminated
Nov 24
Waning Crescent
Nov 25
New
Dec 2
First Quarter
Dec 10
Full
Dec 18
Last Quarter

Hourly Weather History & Observations

Time (CAT) Temp. Heat Index Dew Point Humidity Pressure Visibility Wind Dir Wind Speed Gust Speed Precip Events Conditions
12:00 AM 73.4 °F - 68.0 °F 83% 29.89 in - Variable 1.2 mph - N/A   Clear
1:00 AM 73.4 °F - 68.0 °F 83% 29.89 in - Variable 2.3 mph - N/A   Clear
2:00 AM 72 °F - 67 °F 80%  in 6 mi North 1.2 mph - -   Scattered Clouds
2:00 AM 73.4 °F - 68.0 °F 83% 29.86 in - Variable 1.2 mph - N/A   Clear
4:00 AM 73.4 °F - 66.2 °F 78% 29.92 in - South 15.0 mph - N/A   Clear
5:00 AM 71.6 °F - 62.6 °F 73% 29.92 in 6.2 mi South 8.1 mph - N/A   Mostly Cloudy
6:00 AM 71.6 °F - 62.6 °F 73% 29.95 in 6.2 mi South 8.1 mph - N/A   Mostly Cloudy
7:00 AM 69.8 °F - 62.6 °F 78% 29.95 in 6.2 mi SSE 8.1 mph - N/A   Scattered Clouds
8:00 AM 72 °F - 64 °F 68%  in 6 mi SE 5.8 mph - -   Scattered Clouds
8:00 AM 71.6 °F - 64.4 °F 78% 29.98 in 6.2 mi SE 5.8 mph - N/A   Scattered Clouds
9:00 AM 75.2 °F - 62.6 °F 65% 29.98 in - East 4.6 mph - N/A   Clear
10:00 AM 80.6 °F 81.8 °F 62.6 °F 54% 30.01 in - South 6.9 mph - N/A   Clear
11:00 AM 82.4 °F 83.4 °F 62.6 °F 51% 29.98 in 6.2 mi South 6.9 mph - N/A   Partly Cloudy
12:00 PM 84.2 °F 85.0 °F 62.6 °F 48% 29.98 in 6.2 mi NE 5.8 mph - N/A   Mostly Cloudy
1:00 PM 84.2 °F 85.0 °F 62.6 °F 48% 29.95 in 6.2 mi SW 3.5 mph - N/A   Scattered Clouds
2:00 PM 84.2 °F 85.6 °F 64.4 °F 51% 29.92 in 6.2 mi SE 3.5 mph - N/A   Scattered Clouds
3:00 PM 82.4 °F 83.9 °F 64.4 °F 54% 29.92 in 6.2 mi North 6.9 mph - N/A   Scattered Clouds
5:00 PM 80.6 °F 82.3 °F 64.4 °F 58% 29.89 in 6.2 mi NNE 9.2 mph - N/A   Scattered Clouds
6:00 PM 78.8 °F - 64.4 °F 61% 29.92 in 6.2 mi ENE 12.7 mph - N/A   Mostly Cloudy
7:00 PM 78.8 °F - 64.4 °F 61% 29.95 in 6.2 mi ENE 10.4 mph - N/A   Scattered Clouds
8:00 PM 77 °F - 65 °F 58%  in 6 mi ENE 6.9 mph - -   Scattered Clouds
8:00 PM 77.0 °F - 64.4 °F 65% 29.98 in 6.2 mi ENE 6.9 mph - N/A   Scattered Clouds
9:00 PM 77.0 °F - 64.4 °F 65% 30.01 in 6.2 mi ENE 6.9 mph - N/A   Scattered Clouds
10:00 PM 75.2 °F - 62.6 °F 65% 30.01 in 6.2 mi ENE 9.2 mph - N/A   Mostly Cloudy
11:00 PM 75.2 °F - 64.4 °F 69% 30.01 in - NE 5.8 mph - N/A   Clear